Regional Weather Roundup
Issued by NWS Raleigh/Durham, NC

Current Version | Previous Version | Text Only | Print | Product List | Glossary On
Versions: 1 2 3 4 5 6 7 8 9 10 11 12 13 14 15 16 17 18 19 20 21 22 23 24 25 26 27 28 29 30 31 32 33 34 35 36 37 38 39 40 41 42 43 44 45 46 47 48 49 50
000
ASUS42 KRAH 031910
RWRRAH
NORTH CAROLINA WEATHER ROUNDUP
NATIONAL WEATHER SERVICE RALEIGH NC
300 PM EDT WED JUN 03 2015

NOTE: "FAIR" INDICATES FEW OR NO CLOUDS BELOW 12,000 FEET WITH NO
SIGNIFICANT WEATHER AND/OR OBSTRUCTIONS TO VISIBILITY.

NCZ001-053-055-056-065-067-032000-
WESTERN NORTH CAROLINA

CITY           SKY/WX    TMP DP  RH WIND       PRES   REMARKS
ASHEVILLE      PTSUNNY   74  58  57 SE10G17   30.05F
JEFFERSON      CLOUDY    60  60  98 S3        30.13S
MORGANTON      CLOUDY    64  60  87 N3        30.13F
HICKORY        CLOUDY    64  58  80 VRB5      30.08F
RUTHERFORDTON  CLOUDY    72  63  73 E9        30.07F
MOUNT AIRY     CLOUDY    65  60  81 E8        30.11F
BOONE          CLOUDY    59  57  94 E6        30.14S
$$

NCZ021-022-025-041-071-084-088-032000-
CENTRAL NORTH CAROLINA

CITY           SKY/WX    TMP DP  RH WIND       PRES   REMARKS
CHARLOTTE      CLOUDY    67  62  84 N9        30.06F
GREENSBORO     CLOUDY    62  59  90 NE9       30.09F
WINSTON-SALEM  CLOUDY    61  57  87 NE7       30.11F
RALEIGH-DURHAM CLOUDY    67  63  87 NE8       30.07F
FORT BRAGG     CLOUDY    70  68  94 NE5       30.02F
FAYETTEVILLE   CLOUDY    73  69  87 N9        30.02F
BURLINGTON     CLOUDY    63  61  93 N8        30.09S FOG
LAURINBURG     CLOUDY    76  65  68 S6        30.02F
$$

NCZ011-015-027-028-043-044-047-080-103-032000-
NORTHEASTERN NORTH CAROLINA

CITY           SKY/WX    TMP DP  RH WIND       PRES   REMARKS
ROCKY MT-WILSO CLOUDY    71  67  87 NE9       30.06S
GREENVILLE     CLOUDY    73  68  83 N8        30.06S
WASHINGTON     CLOUDY    74  68  82 N5        30.04S
ELIZABETH CITY NOT AVBL
MANTEO         CLOUDY    75  69  80 NE7       30.04S
CAPE HATTERAS  CLOUDY    79  67  66 NE7       30.03F
$$

NCZ078-087-090-091-093-098-101-032000-
SOUTHEASTERN NORTH CAROLINA

CITY           SKY/WX    TMP DP  RH WIND       PRES   REMARKS
LUMBERTON      CLOUDY    77  65  66 CALM      30.01F
GOLDSBORO      LGT RAIN  73  69  89 S3        30.02S
KINSTON        CLOUDY    75  68  78 CALM      30.04F
KENANSVILLE    LGT RAIN  71  68  90 CALM      30.05S
NEW BERN       CLOUDY    78  67  68 CALM      30.04S
CHERRY POINT   RAIN      78  67  68 NE7       30.03S
BEAUFORT       CLOUDY    78  70  76 E6        30.02F
JACKSONVILLE   CLOUDY    76  68  76 NE3       30.02S
WILMINGTON     CLOUDY    75  69  81 E5        30.02S
$$



USA.gov is the U.S. government's official web portal to all federal, state and local government web resources and services.